Regional Weather Roundup
Issued by NWS Sioux Falls, SD

Home | Current Version | Previous Version | Graphics & Text | Print | Product List | Glossary On
Versions: 1 2 3 4 5 6 7 8 9 10 11 12 13 14 15 16 17 18 19 20 21 22 23 24 25 26 27 28 29 30 31 32 33 34 35 36 37 38 39 40 41 42 43 44 45 46 47 48 49 50
000
ASUS43 KFSD 290402
RWRFSD

WEATHER ROUNDUP FOR SE SOUTH DAKOTA/SW MINNESOTA/NW IOWA
NATIONAL WEATHER SERVICE SIOUX FALLS SD
1100 PM CDT SAT MAR 28 2015

NOTE: "FAIR" INDICATES FEW OR NO CLOUDS BELOW 12,000 FEET WITH NO
SIGNIFICANT WEATHER AND OR OBSTRUCTIONS TO VISIBILITY.


SDZ038>040-050-052>070-290500-
SOUTHEAST SOUTH DAKOTA

CITY           SKY/WX    TMP DP  RH WIND       PRES   REMARKS
CHAMBERLAIN    NOT AVBL
HURON          PTCLDY    47  32  56 S21G37    29.63F
MITCHELL       CLEAR     48  33  56 S28G39    29.68F
SIOUX FALLS    CLEAR     44  29  55 S24G31    29.79F
WINNER         FAIR      63  34  33 S36G46    29.59R
YANKTON        CLEAR     46  32  57 SE23G30   29.78F
$$

MNZ071-072-080-081-089-090-097-098-290500-
SOUTHWEST MINNESOTA

CITY           SKY/WX    TMP DP  RH WIND       PRES   REMARKS
FAIRMONT       CLEAR     36  21  55 S18       29.92F
MARSHALL       CLEAR     43  27  52 S26G35    29.80F
REDWOOD FALLS  CLEAR     39  27  62 S20       29.84F
WORTHINGTON    CLEAR     37  27  65 S23G29    29.86F
$$

IAZ001>003-012>014-020>022-031-032-NEZ013-014-SDZ071-290500-
NORTHWEST IOWA

CITY           SKY/WX    TMP DP  RH WIND       PRES   REMARKS
DENISON        CLEAR     39  30  70 S16G24    29.97F
ESTHERVILLE    CLEAR     37  26  64 S24       29.93F
LE MARS        CLEAR     43  32  65 SE16G25   29.86F
ORANGE CITY    CLEAR     43  28  56 S15G22    29.85F
SHELDON        CLEAR     39  30  70 SE24G30   29.85F
SIOUX CITY     CLEAR     45  30  55 S21G30    29.90F
SPENCER        CLEAR     39  28  64 S20       29.92F
STORM LAKE     CLEAR     37  28  70 S21G28    29.95F
$$

ABBREVIATIONS USED IN REMARKS
   TC - TEMPERATURE IN CELSIUS
  WCI - WIND CHILL INDEX
   HX - HEAT INDEX
  VSB - VISIBILITY




USA.gov is the U.S. government's official web portal to all federal, state and local government web resources and services.